TimeMDT,TemperatureF,Dew PointF,Humidity,Sea Level PressureIn,VisibilityMPH,Wind Direction,Wind SpeedMPH,Gust SpeedMPH,PrecipitationIn,Events,Conditions,WindDirDegrees,DateUTC
12:51 AM,43.0,28.9,58,29.65,10.0,WSW,4.6,16.1,N/A,,Overcast,240,2013-04-13 06:51:00
1:51 AM,42.1,28.9,60,29.62,10.0,South,10.4,25.3,0.00,Rain,Light Rain,180,2013-04-13 07:51:00
2:51 AM,41.0,30.9,67,29.59,10.0,SE,5.8,-,0.00,,Overcast,140,2013-04-13 08:51:00
3:51 AM,39.9,28.9,65,29.57,10.0,WSW,8.1,20.7,0.00,Rain,Light Rain,250,2013-04-13 09:51:00
4:47 AM,37.4,30.2,75,29.60,6.0,SSW,8.1,-,0.00,Rain,Light Rain,200,2013-04-13 10:47:00
4:51 AM,37.0,32.0,82,29.57,6.0,Calm,Calm,-,0.01,Rain,Light Rain,0,2013-04-13 10:51:00
4:57 AM,37.4,30.2,75,29.59,10.0,Calm,Calm,-,0.00,Rain,Light Rain,0,2013-04-13 10:57:00
6:51 AM,35.1,30.0,82,29.59,7.0,WSW,11.5,18.4,0.03,Snow,Light Snow,240,2013-04-13 12:51:00
7:51 AM,35.1,27.0,72,29.60,10.0,SSW,3.5,-,0.00,,Clear,210,2013-04-13 13:51:00
8:51 AM,36.0,18.0,48,29.60,10.0,SW,13.8,-,N/A,,Clear,220,2013-04-13 14:51:00
9:51 AM,36.0,21.9,57,29.62,10.0,Variable,4.6,-,N/A,,Overcast,0,2013-04-13 15:51:00
10:38 AM,32.0,21.2,64,29.64,2.0,West,10.4,-,0.00,Snow,Light Snow,270,2013-04-13 16:38:00
10:46 AM,32.0,21.2,64,29.64,3.0,West,9.2,-,0.00,Snow,Light Snow,280,2013-04-13 16:46:00
10:51 AM,30.9,21.0,67,29.66,2.5,West,5.8,16.1,0.00,Snow,Light Snow,280,2013-04-13 16:51:00
11:05 AM,32.0,19.4,60,29.65,7.0,West,10.4,-,0.00,Snow,Light Snow,260,2013-04-13 17:05:00
11:14 AM,32.0,19.4,60,29.65,8.0,WNW,11.5,17.3,0.00,Snow,Light Snow,300,2013-04-13 17:14:00
11:51 AM,34.0,14.0,44,29.68,10.0,NNW,5.8,-,0.00,,Mostly Cloudy,330,2013-04-13 17:51:00
12:51 PM,34.0,10.9,38,29.67,10.0,WNW,9.2,18.4,N/A,,Overcast,290,2013-04-13 18:51:00
1:51 PM,33.1,9.0,37,29.70,10.0,West,13.8,23.0,0.00,,Overcast,280,2013-04-13 19:51:00
2:51 PM,36.0,7.0,30,29.72,10.0,NW,18.4,25.3,N/A,,Mostly Cloudy,320,2013-04-13 20:51:00
3:51 PM,36.0,9.0,33,29.74,10.0,WNW,12.7,20.7,N/A,,Mostly Cloudy,300,2013-04-13 21:51:00
4:51 PM,37.9,5.0,25,29.74,10.0,West,16.1,39.1,N/A,,Mostly Cloudy,280,2013-04-13 22:51:00
4:57 PM,37.4,5.0,26,29.71,10.0,West,20.7,39.1,N/A,,Mostly Cloudy,260,2013-04-13 22:57:00
5:51 PM,36.0,5.0,27,29.76,10.0,NW,15.0,24.2,N/A,,Mostly Cloudy,310,2013-04-13 23:51:00
6:51 PM,36.0,8.1,31,29.77,10.0,NNW,9.2,-,N/A,,Overcast,330,2013-04-14 00:51:00
7:51 PM,34.0,9.0,35,29.79,10.0,NNW,8.1,-,N/A,,Mostly Cloudy,330,2013-04-14 01:51:00
8:51 PM,32.0,10.9,42,29.82,10.0,WNW,6.9,-,N/A,,Overcast,300,2013-04-14 02:51:00
9:51 PM,30.0,14.0,51,29.85,10.0,NW,6.9,-,N/A,,Scattered Clouds,310,2013-04-14 03:51:00
10:51 PM,28.0,14.0,56,29.88,10.0,Calm,Calm,-,N/A,,Clear,0,2013-04-14 04:51:00
11:51 PM,26.1,16.0,66,29.89,10.0,Calm,Calm,-,N/A,,Mostly Cloudy,0,2013-04-14 05:51:00